Cloud_Cover
99 100 99 94 100 95 34 61 96 100 100 100 95 87 99 87 62 72 96 83 63 71 69 100 82 64 100 100 99 100 38 64 77
100 82 100 100 100 100 100 100 100 100 100 97 49 61 63 67 71 94 100 100 92 99 90 88 100 97 67 98 100 99 60 55 21
100 100 100 100 100 100 100 99 100 100 100 100 88 100 45 58 78 93 100 100 100 100 100 84 33 81 91 70 86 89 88 38 5
100 100 100 100 100 100 100 100 100 100 100 100 62 7 32 75 66 85 74 100 100 100 100 14 77 62 100 82 68 41 31 86 94
100 100 100 100 100 100 100 100 100 100 100 97 100 96 79 59 18 64 64 32 97 99 99 100 100 96 90 100 47 5 5 37 87
100 100 100 100 100 100 100 100 100 98 75 94 100 100 91 74 100 100 29 57 79 86 100 100 100 100 100 72 86 68 25 38 67
100 100 100 100 96 100 100 100 97 100 91 17 36 40 88 87 100 100 79 100 100 100 100 95 100 100 100 100 100 100 100 98 100
100 100 100 100 100 100 94 99 95 92 97 100 99 80 44 100 100 100 100 95 100 100 100 100 100 100 100 100 100 100 100 100 100
100 100 100 100 100 100 100 100 100 93 100 100 100 97 100 100 90 100 100 100 100 100 100 100 100 100 100 100 100 100 100 100 100
100 100 100 100 100 100 100 100 100 100 100 100 100 100 100 100 100 100 100 100 100 100 100 100 100 100 100 100 100 100 100 100 100
100 100 100 100 100 100 100 100 100 100 100 100 100 100 100 100 100 100 100 100 100 100 100 100 100 100 100 100 100 100 100 100 100
100 100 100 100 100 100 100 82 100 97 7 14 100 100 38 7 5 5 6 4 62 100 100 100 100 78 100 95 100 100 100 100 100
100 100 90 77 86 84 83 98 100 89 77 50 60 22 5 5 5 0 0 0 0 1 10 0 3 32 96 92 100 100 100 100 100
100 100 100 100 77 77 81 64 84 100 100 82 83 77 84 62 5 5 5 1 1 0 0 0 1 1 2 2 32 72 100 100 100
100 100 100 100 100 97 76 88 97 99 100 100 92 72 63 79 65 8 5 5 5 5 9 6 1 0 2 2 1 0 1 8 30
100 100 100 100 100 100 100 100 100 100 100 100 100 98 93 96 76 76 60 16 6 6 5 5 5 5 4 0 4 3 5 5 5
100 100 100 100 100 100 100 100 100 100 100 100 100 100 100 100 100 100 100 92 73 72 64 63 28 16 31 32 20 15 17 5 5
100 100 100 100 100 100 100 100 100 100 100 100 100 100 100 100 100 100 100 100 100 100 100 100 88 84 99 79 77 91 90 66 13
100 100 100 100 100 100 100 100 100 100 100 100 100 100 100 100 100 100 100 100 100 100 100 100 100 100 100 64 7 5 20 25 5
100 100 100 100 100 100 100 100 100 100 100 100 100 100 100 100 100 100 100 100 100 100 100 100 100 100 100 81 92 100 100 100 100